Powrót do katalogu

ATLAS 5 CENTAUR DEB

AktywnyHEO
NORAD 44693·DEBRIS·🇺🇸 United States

Wystrzelony Oct 17, 2018 z Cape Canaveral Space Force Station

Loading…

Następne Przeloty (najbliższe 24 godziny)

TLE

ŚwieżeSource: Space-Track

Epoka: Sep 13, 2026, 10:59 UTC

1 44693U 18079BF  26256.45778192 -.00000164  00000-0  00000-0 0  9997
2 44693  13.5940  33.6213 4676009 312.9519  16.2458  1.78456466 48454

Śledź ATLAS 5 CENTAUR DEB w czasie rzeczywistym z AllMySat

Download on the App Store